Location: Olda
(45.8833°N, 9.5500°E)
Time: 15:54:56
(UTC+00:00)

SeaSat 1 - Pass Details

Date: 03 March 2021
Orbit: 744 x 747 km, 108.0° (Epoch: 11 April)

Event Time Altitude Azimuth Distance (km) Brightness Sun altitude
Rises 17:55:55 0° 34° (NNE) 3,201 5.4 -8.6°
Reaches altitude 10° 17:58:20 10° 41° (NE) 2,273 4.6 -9.0°
Maximum altitude 18:02:59 41° 112° (ESE) 1,084 2.9 -9.8°
Drops below altitude 10° 18:07:37 10° 182° (S) 2,258 4.9 -10.6°
Sets 18:09:59 0° 189° (S) 3,178 5.8 -11.0°
